FW1458 Weather Reports


time (UTC)temp
F
wind
direction
speed
knots
gust
knots
rain 1hr
in
rain 24hr
in
rain mn
in
humidity
%
barometer
mb
20260506034549 51 44 3.5 10.4 0.00 0.01 0.00 73 1013.4
20260506033048 51 351 6.1 11.3 0.00 0.01 0.00 74 1013.0
20260506031547 51 355 3.5 9.6 0.00 0.01 0.00 76 1012.9
20260506030044 51 342 4.3 9.6 0.00 0.01 0.00 77 1012.7
20260506024543 51 336 4.3 12.2 0.00 0.01 0.00 76 1012.1
20260506023042 51 340 4.3 11.3 0.00 0.01 0.00 76 1011.8
20260506021537 51 15 4.3 10.4 0.00 0.01 0.00 76 1011.5
20260506020035 51 46 4.3 12.2 0.00 0.01 0.00 76 1011.0
20260506014544 51 329 2.6 9.6 0.00 0.01 0.00 76 1010.9
20260506013034 51 37 7.8 16.5 0.00 0.01 0.00 75 1010.4
20260506011533 51 11 5.2 13.9 0.00 0.01 0.00 76 1010.2
20260506010029 51 355 7.0 15.6 0.00 0.01 0.00 76 1010.1
20260506004536 51 349 5.2 13.0 0.00 0.01 0.00 76 1010.0
20260506003024 52 37 5.2 13.9 0.00 0.01 0.00 76 1010.1
20260506001521 52 355 5.2 13.0 0.00 0.01 0.00 75 1009.6
20260506000023 52 15 3.5 13.0 0.00 0.01 0.00 75 1010.0
20260505234520 52 19 5.2 12.2 0.00 0.01 0.00 74 1010.0
20260505233018 52 348 7.0 13.9 0.00 0.01 0.00 73 1009.7
20260505231514 53 5 7.8 16.5 0.00 0.01 0.00 71 1009.4
20260505230015 53 348 7.0 13.9 0.00 0.01 0.00 71 1009.3
20260505224508 53 22 8.7 14.8 0.00 0.01 0.00 71 1008.7
20260505223008 53 350 6.1 13.9 0.00 0.01 0.00 71 1008.8
20260505221506 53 33 7.8 18.2 0.00 0.01 0.00 71 1008.1
20260505220008 54 12 7.8 16.5 0.00 0.01 0.00 71 1008.6
20260505214608 54 337 5.2 13.9 0.00 0.01 0.00 71 1008.4
20260505213101 54 5 6.1 17.4 0.00 0.01 0.00 71 1008.2
20260505211613 54 19 7.0 16.5 0.00 0.01 0.00 72 1008.4
20260505210105 55 129 7.8 15.6 0.00 0.01 0.00 72 1008.0
20260505204550 55 57 6.1 20.0 0.00 0.01 0.00 72 1008.3
20260505203050 55 37 7.8 13.9 0.00 0.01 0.00 73 1008.0
20260505201553 55 12 8.7 17.4 0.00 0.01 0.00 74 1008.0
20260505200045 55 343 9.6 16.5 0.00 0.01 0.00 75 1008.0
20260505194545 54 355 7.8 18.2 0.00 0.01 0.00 76 1008.3
20260505193048 55 339 7.0 16.5 0.00 0.01 0.00 76 1007.9
20260505191549 55 22 9.6 16.5 0.00 0.01 0.00 76 1007.5
20260505190044 55 13 9.6 16.5 0.00 0.01 0.00 76 1007.3
20260505184540 55 26 6.1 15.6 0.00 0.01 0.00 77 1007.1
20260505183047 55 22 7.0 13.0 0.00 0.01 0.00 79 1007.2
20260505181535 55 340 7.0 14.8 0.00 0.01 0.00 80 1007.3
20260505180036 55 64 7.0 14.8 0.00 0.01 0.00 81 1006.6
20260505174536 55 76 5.2 13.9 0.00 0.01 0.00 82 1006.6
20260505173035 55 26 7.8 15.6 0.00 0.01 0.00 82 1006.3
20260505171529 55 38 5.2 15.6 0.00 0.01 0.00 83 1006.1
20260505170019 55 355 7.0 13.9 0.00 0.01 0.00 84 1005.7
20260505164531 56 26 7.0 18.2 0.00 0.01 0.00 84 1005.6
20260505163021 56 355 8.7 17.4 0.00 0.01 0.00 84 1005.3
20260505161513 56 360 6.1 16.5 0.00 0.01 0.00 84 1005.3
20260505153004 59 338 7.8 13.0 0.00 0.01 0.00 84 1004.5
20260505151600 60 355 10.4 17.4 0.00 0.01 0.00 83 1004.5
20260505151502 60 341 7.8 16.5 0.00 0.01 0.00 83 1004.5
20260505150114 61 61 7.8 13.9 0.00 0.01 0.00 83 1004.4
20260505124545 66 59 2.6 7.8 0.00 0.01 0.00 81 1003.4
20260505123105 65 63 3.5 7.8 0.00 0.01 0.00 82 1002.6
20260505121544 65 172 1.7 3.5 0.00 0.01 0.00 82 1002.4
20260505120050 65 61 1.7 4.3 0.00 0.01 0.00 82 1002.5
20260505114553 65 136 2.6 8.7 0.00 0.01 0.00 82 1002.1
20260505113044 65 35 3.5 8.7 0.00 0.01 0.00 82 1002.2
20260505111541 65 74 2.6 8.7 0.00 0.01 0.00 83 1002.2
20260505101544 65 15 2.6 8.7 0.00 0.01 0.00 84 1001.7
20260505100039 65 48 1.7 9.6 0.00 0.01 0.00 84 1001.6
20260505094538 64 102 2.6 9.6 0.00 0.01 0.00 85 1001.5
20260505093044 64 59 2.6 8.7 0.00 0.01 0.00 84 1001.4
20260505091543 64 127 1.7 7.0 0.00 0.01 0.00 84 1001.5
20260505090046 64 86 1.7 7.8 0.00 0.01 0.00 82 1001.6
20260505084533 65 105 2.6 7.8 0.00 0.01 0.00 81 1001.4
20260505083030 65 105 2.6 7.8 0.00 0.01 0.00 81 1001.5
20260505081536 66 62 3.5 8.7 0.00 0.01 0.00 79 1001.6
20260505080044 67 39 2.6 8.7 0.00 0.01 0.00 78 1001.7
20260505074524 67 26 2.6 7.8 0.00 0.01 0.00 78 1001.8
20260505073024 68 17 2.6 6.1 0.00 0.01 0.00 78 1002.2
20260505071532 68 90 1.7 7.0 0.00 0.01 0.00 78 1002.5
20260505070025 67 89 1.7 6.1 0.00 0.01 0.00 79 1002.7
20260505064522 67 72 2.6 7.0 0.00 0.01 0.00 79 1002.9
20260505063021 67 63 2.6 7.0 0.00 0.01 0.00 80 1003.3
20260505061519 67 20 2.6 7.8 0.00 0.01 0.00 79 1003.2
20260505060022 68 19 0.9 4.3 0.00 0.01 0.00 78 1003.0
20260505054517 68 343 1.7 4.3 0.00 0.01 0.00 77 1002.9
20260505053017 67 104 0.0 4.3 0.00 0.01 0.00 76 1002.4
20260505051509 67 169 1.7 7.0 0.00 0.01 0.00 76 1001.9
20260505041504 68 133 2.6 7.0 0.01 0.01 0.01 75 1002.0
20260505040005 68 196 3.5 8.7 0.01 0.01 0.01 73 1001.8